Temperature
1 1 1 1 1 2 2 2 1 1 1 2 3 3 3 3 3 3 3 3 3 3 3 3 3 3 3 3 3 4 4 4 3 4 4 4 4 4
0 0 1 1 1 1 1 1 1 1 1 1 2 2 2 2 2 2 3 3 3 3 3 3 3 3 3 3 3 3 3 3 3 3 3 3 3 3
-0 -0 -0 0 0 0 1 1 1 1 1 1 1 1 1 2 2 2 2 2 2 2 2 2 2 2 2 2 2 2 2 2 3 3 3 3 3 2
-1 -1 -1 -0 -0 -0 -0 0 0 0 0 0 1 1 1 1 1 1 2 2 2 2 2 2 2 2 2 2 2 2 2 2 2 2 2 2 2 2
-1 -1 -1 -1 -1 -1 -1 -1 -0 -0 -0 -0 -0 0 0 0 0 1 1 1 1 2 2 1 1 1 1 1 1 1 2 2 2 2 2 2 2 2
-2 -2 -2 -2 -1 -1 -1 -1 -1 -1 -1 -1 -1 -1 -1 -1 -0 -0 0 0 1 1 1 1 1 1 1 1 1 1 1 1 1 1 2 2 2 2
-2 -2 -2 -2 -2 -2 -2 -1 -1 -1 -1 -1 -1 -1 -1 -1 -1 -1 -1 -1 -0 0 0 1 1 1 1 1 1 1 1 1 1 1 1 1 1 1
-2 -2 -2 -2 -2 -2 -2 -2 -2 -1 -1 -1 -1 -2 -1 -1 -2 -1 -1 -1 -1 -1 -1 -0 0 0 0 0 0 0 0 0 1 1 1 1 1 1
-3 -3 -3 -3 -2 -2 -2 -2 -2 -2 -2 -2 -2 -1 -2 -2 -2 -2 -2 -2 -1 -1 -1 -1 -0 -0 -0 -0 -0 -0 -0 0 -0 -0 0 0 0 0
-3 -3 -3 -3 -3 -3 -3 -2 -2 -2 -2 -2 -2 -2 -2 -2 -2 -2 -2 -2 -1 -1 -2 -1 -1 -1 -1 -1 -1 -1 -0 -0 -1 -1 -0 -0 -0 -0
-3 -3 -3 -3 -3 -3 -3 -2 -2 -2 -2 -2 -2 -2 -2 -2 -2 -2 -2 -2 -2 -2 -2 -2 -1 -1 -1 -1 -1 -1 -1 -1 -1 -1 -1 -1 -1 -1
-3 -3 -3 -3 -3 -3 -3 -3 -3 -2 -2 -2 -2 -2 -2 -2 -2 -2 -2 -3 -3 -3 -2 -2 -2 -2 -2 -2 -2 -2 -2 -2 -2 -1 -1 -1 -1 -1
-4 -3 -3 -3 -3 -3 -3 -3 -3 -3 -3 -3 -3 -3 -3 -3 -3 -3 -3 -3 -3 -3 -2 -3 -2 -2 -2 -2 -2 -2 -2 -2 -2 -2 -2 -2 -2 -2
-4 -4 -4 -4 -3 -3 -3 -3 -3 -3 -3 -3 -3 -3 -3 -3 -3 -3 -3 -3 -3 -3 -3 -3 -2 -2 -3 -3 -3 -3 -2 -2 -2 -2 -2 -2 -2 -2
-4 -4 -4 -4 -4 -4 -4 -4 -4 -4 -4 -4 -4 -3 -3 -3 -3 -3 -3 -3 -3 -3 -3 -3 -3 -3 -3 -3 -3 -3 -3 -3 -3 -3 -3 -2 -2 -2
-4 -4 -4 -4 -4 -4 -4 -4 -4 -4 -4 -4 -4 -4 -4 -4 -4 -4 -3 -4 -3 -3 -3 -3 -3 -3 -3 -3 -3 -3 -3 -3 -3 -3 -3 -3 -3 -3
-4 -4 -4 -4 -4 -4 -4 -4 -4 -4 -4 -4 -4 -4 -4 -4 -4 -4 -4 -4 -4 -4 -4 -4 -4 -4 -4 -4 -3 -3 -4 -4 -4 -4 -3 -3 -3 -3
-5 -5 -5 -5 -5 -5 -5 -5 -5 -5 -5 -4 -5 -4 -4 -4 -4 -4 -4 -4 -4 -4 -4 -4 -4 -4 -4 -4 -4 -4 -4 -4 -4 -4 -4 -3 -3 -3
-5 -5 -5 -5 -5 -5 -5 -5 -5 -5 -5 -5 -5 -5 -5 -5 -5 -5 -4 -4 -4 -4 -4 -4 -4 -4 -4 -5 -5 -4 -4 -4 -4 -4 -4 -4 -4 -3
-5 -5 -5 -5 -5 -5 -5 -5 -5 -5 -5 -5 -5 -5 -5 -5 -5 -5 -5 -5 -4 -4 -4 -5 -5 -5 -4 -5 -5 -5 -4 -4 -4 -4 -4 -4 -4 -4
-6 -6 -6 -6 -6 -6 -6 -6 -6 -6 -6 -5 -5 -5 -5 -5 -5 -5 -5 -5 -5 -5 -5 -5 -5 -5 -5 -5 -5 -5 -5 -4 -4 -4 -4 -4 -4 -4
-6 -6 -6 -6 -6 -6 -6 -6 -6 -6 -6 -6 -5 -5 -5 -5 -5 -5 -5 -5 -5 -5 -5 -5 -5 -5 -5 -5 -5 -5 -5 -5 -4 -4 -4 -4 -4 -4
-6 -6 -6 -6 -6 -6 -6 -6 -6 -6 -6 -6 -6 -6 -5 -5 -5 -5 -5 -5 -5 -5 -5 -5 -5 -5 -5 -5 -5 -5 -5 -5 -5 -4 -4 -4 -4 -4
Wind_Speed
4 5 5 4 4 4 4 4 5 7 7 5 3 3 4 6 9 8 7 9 10 11 11 10 11 11 11 11 11 11 11 12 12 13 14 15 15 15
4 4 5 4 4 4 5 5 5 6 7 4 4 5 6 7 10 8 8 10 10 10 10 10 10 10 10 10 11 11 11 11 12 12 13 14 14 14
5 5 6 5 5 5 4 5 5 5 8 7 5 5 5 6 6 7 8 7 7 9 10 10 10 10 10 10 10 10 11 11 11 12 12 13 13 13
6 6 7 6 6 5 5 6 6 5 6 8 6 5 6 5 5 5 5 6 6 9 9 10 10 9 9 9 9 9 10 10 11 11 12 12 12 11
7 7 7 6 7 6 6 6 6 6 5 6 7 5 5 4 5 5 5 4 6 7 8 9 9 8 8 8 9 9 9 10 10 9 10 10 10 11
7 7 7 7 7 7 6 6 6 6 5 5 6 5 5 4 4 4 5 3 4 5 6 7 7 7 8 8 8 8 8 8 9 9 9 9 9 10
7 7 7 8 9 8 7 6 6 6 5 6 6 6 5 4 4 4 5 5 5 3 3 4 4 3 4 7 7 8 8 7 7 7 7 7 8 9
7 7 7 8 9 11 12 11 9 8 7 6 6 7 6 5 4 4 4 5 5 2 2 5 3 3 3 3 6 7 7 7 6 6 7 7 8 8
7 7 7 7 8 7 9 9 10 11 10 8 7 7 6 5 5 5 5 5 6 4 3 5 3 3 3 4 7 7 6 6 6 6 7 7 7 8
7 7 7 7 7 7 6 6 6 7 7 6 5 6 5 4 4 5 5 5 5 4 3 4 3 3 4 3 6 5 5 5 6 7 7 7 7 8
6 6 6 5 8 9 6 6 6 5 6 6 6 6 7 7 4 2 3 3 4 3 2 2 2 2 3 3 3 3 4 5 6 7 7 8 8 8
4 5 7 7 9 8 5 5 6 6 4 4 4 4 4 5 6 4 3 3 3 3 1 1 1 2 2 2 2 2 3 4 7 7 8 8 8 5
4 3 4 8 9 8 6 4 6 5 4 3 3 3 3 3 3 3 3 3 3 3 1 1 1 1 2 2 2 2 2 3 4 6 7 8 7 5
4 3 4 7 8 8 6 5 6 5 3 3 3 3 3 3 2 2 2 2 2 3 3 2 2 2 2 2 2 2 2 3 3 3 4 6 6 7
3 4 5 6 5 4 5 6 5 2 2 2 3 3 3 2 2 2 2 2 2 2 2 2 2 2 2 2 2 2 2 2 2 2 3 4 3 4
3 4 5 5 4 5 4 4 3 2 2 2 3 3 2 2 2 1 1 1 1 2 2 1 1 0 1 1 1 2 2 1 2 3 3 3 4 3
3 2 2 3 3 3 3 3 2 2 2 2 2 2 2 2 2 2 1 1 1 1 2 2 1 1 0 1 1 2 1 1 2 2 2 3 3 3
3 2 2 3 3 3 3 3 3 2 2 2 2 2 2 2 2 2 1 1 0 1 1 1 1 1 1 2 2 1 1 1 2 2 2 2 3 3
2 2 2 2 3 3 3 3 3 3 2 2 2 2 2 2 2 1 1 1 1 1 1 0 1 0 1 2 3 2 1 1 2 2 2 2 3 3
2 2 2 3 3 3 3 3 3 3 2 2 2 2 2 1 1 1 1 1 0 0 1 1 1 1 1 1 1 2 3 1 1 2 2 2 2 3
3 3 3 3 3 3 3 3 2 2 2 2 2 2 2 1 1 1 1 1 0 0 0 1 2 2 0 1 1 2 2 3 2 2 2 2 2 2
3 3 3 3 3 3 3 2 2 2 2 2 2 2 2 1 1 1 1 0 0 0 0 1 1 1 1 0 0 1 2 3 4 5 3 2 1 0
3 3 3 3 3 3 2 2 3 3 2 2 2 2 1 1 1 1 1 0 0 0 1 1 1 1 1 1 0 1 2 3 3 3 3 5 3 2
Wind_Direction
263 262 262 265 267 264 257 252 257 275 278 271 273 281 306 296 291 291 289 288 283 284 284 285 287 286 285 286 287 287 288 287 288 288 289 290 289 291
266 266 268 268 270 266 258 258 251 257 270 269 279 293 297 299 298 297 294 292 287 284 284 286 287 288 288 288 289 289 288 288 287 286 287 288 290 289
272 269 271 270 267 268 264 262 259 255 267 281 280 288 287 290 297 297 297 293 289 285 285 287 288 290 292 289 287 287 287 288 288 287 287 287 288 287
270 269 270 272 266 264 260 261 262 259 262 279 287 287 287 286 290 290 302 298 295 287 285 288 289 289 292 293 292 290 289 289 289 288 287 288 288 286
267 264 265 266 266 263 260 261 262 263 260 269 283 286 285 288 293 293 292 293 296 291 289 290 288 288 292 299 298 298 296 292 291 292 290 290 291 292
273 269 266 263 266 263 261 259 262 262 261 266 276 283 283 279 282 289 295 290 292 301 298 296 293 295 295 300 299 300 301 299 296 293 292 292 293 293
277 275 271 271 272 270 268 262 261 262 263 263 270 279 280 283 278 283 288 295 294 287 296 302 301 301 302 299 300 301 303 306 306 303 301 301 303 302
275 276 274 269 272 276 277 275 268 263 261 261 265 269 272 271 273 275 280 292 294 285 299 298 292 288 296 294 299 305 311 314 316 313 309 308 306 305
270 271 274 275 275 266 274 279 276 272 265 258 261 264 266 261 261 268 270 278 281 276 287 288 290 286 294 294 300 304 311 318 320 320 319 315 310 309
268 268 271 274 275 276 274 275 274 275 272 264 253 260 266 259 252 259 266 278 282 273 260 273 282 284 294 300 298 303 311 317 321 326 326 321 315 309
274 274 275 273 281 284 279 278 283 285 292 285 282 279 280 281 280 279 274 277 281 280 257 249 272 303 302 292 299 311 319 321 321 325 328 325 320 319
280 278 281 285 285 285 279 277 283 290 290 294 298 297 284 280 280 253 245 258 272 275 259 262 271 318 309 297 309 337 332 324 324 328 331 329 327 333
290 293 291 292 291 292 295 285 281 293 293 289 289 288 287 285 279 273 262 247 254 264 262 277 266 286 279 297 312 320 340 341 335 331 333 336 338 344
296 297 298 300 300 300 302 304 303 305 301 303 303 297 292 294 300 298 291 286 273 259 259 256 243 250 266 278 284 302 322 331 331 327 338 342 345 346
304 313 318 320 322 318 317 319 321 311 296 295 292 289 289 289 303 315 319 306 307 300 293 277 242 232 243 254 271 291 311 320 334 340 344 345 340 345
314 323 331 334 340 340 340 338 337 336 319 292 300 300 305 304 298 298 293 304 305 313 318 324 318 231 252 253 254 280 297 301 329 338 347 348 353 357
329 341 342 339 345 345 343 343 347 347 338 326 310 309 316 316 311 314 298 300 289 306 339 353 360 14 282 245 256 280 299 308 316 335 349 345 342 356
348 348 338 336 332 331 332 333 334 333 325 317 314 313 312 312 318 321 310 280 306 338 340 350 5 26 23 6 323 261 307 322 331 347 346 337 336 344
359 340 329 323 322 325 325 326 325 329 329 320 314 312 316 320 318 311 316 326 319 324 339 7 358 13 356 332 343 4 350 332 341 346 344 326 314 317
341 329 321 316 317 321 324 326 325 329 336 331 320 316 311 310 317 324 318 293 271 320 15 13 350 329 271 256 294 333 345 315 324 331 336 335 329 329
327 320 315 315 320 326 326 325 323 320 322 320 315 314 315 319 318 319 321 322 343 170 311 320 315 330 29 79 21 348 352 0 355 323 327 340 342 347
320 318 319 321 321 320 321 323 323 319 317 315 312 310 309 308 307 308 311 323 307 314 326 330 339 11 43 81 328 330 345 356 8 11 1 334 281 282
316 315 315 317 318 319 320 318 314 310 311 311 310 309 304 306 308 307 317 315 139 114 74 22 5 16 37 91 95 349 352 355 1 5 360 5 2 342
Height
1472 1471 1471 1471 1471 1471 1471 1471 1470 1466 1463 1463 1464 1463 1463 1462 1461 1460 1459 1458 1457 1456 1456 1455 1454 1453 1452 1451 1450 1449 1449 1448 1448 1447 1447 1446 1446 1445
1467 1466 1466 1465 1465 1466 1465 1465 1465 1464 1460 1458 1459 1458 1458 1457 1456 1455 1454 1452 1452 1451 1450 1449 1448 1447 1447 1445 1444 1443 1443 1442 1442 1441 1441 1440 1439 1439
1461 1461 1460 1460 1460 1460 1460 1460 1459 1459 1456 1454 1454 1453 1453 1452 1450 1449 1448 1447 1446 1445 1444 1443 1443 1442 1441 1440 1439 1438 1437 1436 1436 1435 1435 1434 1433 1433
1456 1455 1455 1455 1454 1454 1454 1454 1453 1453 1452 1449 1448 1448 1447 1446 1445 1444 1442 1442 1440 1440 1439 1438 1437 1436 1435 1434 1433 1432 1431 1430 1430 1429 1428 1428 1427 1426
1451 1450 1449 1449 1448 1448 1448 1448 1448 1447 1447 1445 1442 1442 1442 1441 1440 1438 1437 1437 1435 1434 1434 1433 1432 1431 1430 1429 1428 1427 1426 1425 1424 1423 1422 1422 1421 1420
1446 1445 1444 1443 1442 1442 1442 1442 1442 1442 1441 1440 1438 1437 1436 1436 1435 1433 1431 1431 1430 1430 1429 1428 1427 1426 1425 1424 1423 1422 1420 1419 1418 1417 1417 1416 1415 1415
1440 1439 1438 1438 1437 1437 1437 1437 1437 1436 1436 1435 1433 1432 1431 1430 1430 1429 1427 1426 1425 1425 1424 1423 1422 1421 1420 1420 1419 1417 1416 1414 1413 1412 1411 1411 1410 1410
1434 1433 1433 1432 1432 1432 1432 1432 1432 1432 1431 1430 1429 1427 1426 1426 1426 1424 1423 1422 1420 1421 1420 1418 1418 1417 1416 1415 1414 1413 1412 1411 1409 1408 1407 1406 1406 1405
1429 1428 1428 1427 1427 1426 1426 1426 1427 1426 1426 1426 1424 1423 1422 1421 1420 1420 1419 1418 1417 1416 1416 1413 1414 1412 1412 1412 1410 1409 1408 1407 1406 1404 1403 1402 1402 1401
1425 1424 1423 1422 1422 1422 1421 1421 1421 1421 1421 1420 1419 1419 1418 1417 1416 1416 1414 1413 1413 1412 1412 1410 1409 1408 1408 1408 1407 1405 1404 1403 1402 1401 1400 1399 1398 1397
1421 1420 1419 1418 1418 1418 1417 1416 1416 1415 1415 1415 1415 1414 1414 1413 1412 1411 1410 1409 1408 1407 1408 1407 1405 1404 1404 1403 1403 1402 1401 1400 1399 1398 1397 1396 1395 1394
1417 1417 1416 1415 1414 1414 1413 1412 1411 1411 1411 1410 1410 1409 1409 1408 1407 1407 1406 1405 1404 1403 1403 1404 1402 1402 1400 1400 1399 1399 1398 1397 1397 1396 1394 1393 1392 1391
1414 1413 1412 1411 1411 1410 1409 1408 1408 1408 1407 1406 1406 1405 1405 1404 1404 1403 1403 1402 1401 1400 1400 1400 1399 1399 1398 1397 1396 1396 1396 1395 1394 1393 1392 1391 1390 1389
1411 1410 1409 1409 1408 1407 1406 1405 1405 1404 1403 1403 1402 1402 1401 1401 1400 1400 1399 1398 1398 1398 1397 1397 1396 1396 1395 1394 1394 1393 1393 1393 1392 1391 1390 1389 1388 1387
1409 1408 1407 1406 1405 1404 1403 1402 1402 1401 1400 1400 1399 1399 1399 1398 1397 1397 1396 1396 1395 1395 1394 1394 1394 1393 1393 1392 1391 1391 1391 1390 1390 1389 1388 1387 1386 1385
1406 1406 1405 1404 1403 1402 1401 1400 1399 1399 1398 1398 1397 1396 1396 1395 1395 1394 1394 1393 1393 1392 1392 1392 1391 1391 1391 1391 1390 1389 1389 1388 1388 1387 1386 1385 1384 1383
1404 1403 1402 1401 1400 1399 1399 1398 1397 1397 1396 1395 1395 1394 1394 1393 1392 1392 1392 1391 1391 1390 1390 1390 1390 1389 1389 1389 1388 1387 1387 1387 1387 1386 1385 1384 1383 1382
1403 1401 1400 1399 1398 1397 1397 1396 1395 1394 1394 1393 1393 1392 1392 1391 1391 1391 1390 1390 1389 1389 1388 1388 1388 1388 1388 1387 1388 1387 1386 1386 1385 1385 1384 1383 1381 1381
1400 1399 1399 1398 1397 1396 1395 1394 1393 1393 1392 1392 1391 1391 1390 1390 1389 1389 1389 1388 1388 1387 1387 1387 1387 1386 1386 1385 1386 1387 1386 1385 1384 1383 1383 1382 1381 1380
1399 1398 1397 1397 1396 1395 1394 1393 1392 1391 1391 1390 1390 1389 1389 1388 1388 1388 1387 1387 1387 1386 1386 1386 1386 1386 1385 1385 1385 1385 1385 1384 1383 1382 1382 1381 1380 1380
1397 1397 1396 1395 1394 1393 1392 1391 1391 1390 1389 1389 1388 1388 1387 1387 1387 1386 1386 1386 1386 1385 1385 1385 1385 1385 1385 1385 1384 1384 1384 1384 1383 1382 1381 1380 1379 1378
1396 1395 1394 1394 1393 1392 1391 1390 1389 1389 1388 1387 1387 1386 1386 1386 1385 1385 1385 1385 1385 1384 1384 1384 1385 1385 1384 1384 1383 1383 1382 1383 1382 1382 1381 1380 1379 1378
1395 1394 1393 1392 1391 1390 1389 1388 1388 1387 1387 1386 1385 1385 1384 1384 1384 1384 1384 1384 1384 1384 1383 1383 1384 1384 1383 1383 1383 1383 1382 1382 1381 1381 1381 1380 1379 1379